NOAA 16 DEB

Satellite information

Favourite Embed

Satellite Type and Status

DEBRISIN ORBIT

Key statistics

Satellite NOAA 16 DEB at a glance.

Uptime

9159

Days in orbit

Revolutions

≈ 14.3

Per day

Orbit

SSO

Sun Synchronous Orbit

Inclination

98.7

Latest

Satellite identification and parameters

Extended collection of information and parameters for NOAA 16 DEB.

Object identification

Identified? True

Debris? True

Object name: NOAA 16 DEB

International designator: 2000-055KS

Object number (NORAD): 41413

Object ID (CCSDS): 41413

Country: UNITED STATES OF AMERICA (US)

Current information (Y/N): Y

RCS size: SMALL

Orbital parameters

Period: 100.78 minutes

Inclination: 98.6922 deg

SMA: 7173.697 km

Apoapsis: 811.018 km

Periapsis: 780.106 km

RAAN: 352.4269 deg

Eccentricy: 0.00215456

Argument of periapsis: 137.5972 deg

Mean anomaly: 222.6879 deg

Mean motion: 14.28855104 rev/day

Mean motion (dot): 0.00007234 rev/day2

B* drag term: 0.0028754036 1/REarth

Two-line elements (TLE)

Creation date: Oct. 19, 2025, 2:20 a.m.

Reference frame: TEME

Reference center: EARTH

Epoch: Oct. 18, 2025, 10:28 a.m. UTC

TLE line 0: 0 NOAA 16 DEB

TLE line 1: 1 41413U 00055KS 25291.43636833 .00007234 00000-0 28754-2 0 9992

TLE line 2: 2 41413 98.6922 352.4269 0021546 137.5972 222.6879 14.28855104499673

Live tracking on map

Real-time ground track for satellite NOAA 16 DEB.

In-orbit conjunctions

A list of the most updated potential collisions computed for object NOAA 16 DEB.

Target Orbit TCA Probability of collision Miss distance Type
SL-16 DEB LEO 2025-07-10 14:52:37 0.0002671036 57.0 (m) DEBRIS
THOR BURNER 2 R/B SSO 2025-06-17 13:30:01 0.0001199427 32.0 (m) ROCKET BODY
SL-3 DEB LEO 2025-05-16 05:17:12 0.001137295 19.0 (m) DEBRIS
FENGYUN 1C DEB SSO 2024-11-15 12:12:41 0.0001125081 671.0 (m) DEBRIS
DMSP 5D-2 F12 DEB SSO 2024-11-15 02:27:23 0.0001722691 901.0 (m) DEBRIS

Associated space launch

The NOAA K, L and M POES satellites begin the fifth generation of improved environmental monitoring in support of NOAA missions. The instrument payload has significant improvements and additions/deletions. The instrument changes have effected the spacecraft subsystems and data formats.

NOAA 16 DEB was lifted into orbit during the mission ‘Titan II SLV | NOAA 16’, on board a Titan II SLV space rocket.

The launch took place on Sept. 21, 2000, 10:22 a.m. from Space Launch Complex 4W.

For more information about the launch, click the button.

Launch to space Titan II SLV | NOAA 16
Titan II SLV | NOAA 16

Agency: N/A

Status: Launch Successful

Launch date: Sept. 21, 2000, 10:22 a.m. UTC

Rocket: Titan II SLV

Launch pad: Space Launch Complex 4W

Location: Vandenberg SFB, CA, USA

...

Latest news about this satellite

There are no fresh news available about this satellite. Check back as we update our databases every day.


Newsletter sign-up

Weekly statistics, charts and insights to help you stay on top of the space industry.